This is the latest recevied weather packets stored in our database for station/object OH2HCY. If no packets are shown the sender has not sent any weather packets the latest 1 day(s).
| Time | Temp. | Humidity | Pressure | Rain* | Wind** | Luminosity | Snow |
|---|---|---|---|---|---|---|---|
| 1778041874 | 3.33° C | 65% | 1010.6 hPa | - | 1.79 m/s, 280° | - | - |
| 1778041295 | 3.33° C | 66% | 1010.6 hPa | - | 1.79 m/s, 278° | - | - |
| 1778040725 | 2.78° C | 68% | 1010.7 hPa | - | 1.79 m/s, 273° | - | - |
| 1778040170 | 2.22° C | 70% | 1010.8 hPa | - | 1.34 m/s, 262° | - | - |
| 1778039650 | 1.67° C | 71% | 1010.8 hPa | - | 1.34 m/s, 238° | - | - |
| 1778039092 | 1.67° C | 72% | 1010.8 hPa | - | 1.34 m/s, 225° | - | - |
| 1778038540 | 1.11° C | 72% | 1010.7 hPa | - | 0.89 m/s, 215° | - | - |
| 1778038015 | 1.11° C | 72% | 1010.7 hPa | - | 0.89 m/s, 211° | - | - |
| 1778037455 | 1.11° C | 72% | 1010.6 hPa | - | 0.89 m/s, 213° | - | - |
| 1778036930 | 1.11° C | 72% | 1010.5 hPa | - | 0.89 m/s, 222° | - | - |
| 1778036388 | 0.56° C | 72% | 1010.4 hPa | - | 0.89 m/s, 252° | - | - |
| 1778035815 | 0.56° C | 72% | 1010.4 hPa | - | 0.89 m/s, 250° | - | - |
| 1778035290 | 0.56° C | 72% | 1010.3 hPa | - | 1.34 m/s, 229° | - | - |
| 1778034750 | 0.56° C | 73% | 1010.2 hPa | - | 1.34 m/s, 223° | - | - |
| 1778034209 | 0.56° C | 72% | 1010.2 hPa | - | 0.89 m/s, 220° | - | - |
| 1778033687 | 0.56° C | 71% | 1010 hPa | - | 0.89 m/s, 206° | - | - |
| 1778033155 | 1.11° C | 71% | 1009.9 hPa | - | 0.89 m/s, 213° | - | - |
| 1778032570 | 1.11° C | 71% | 1009.9 hPa | - | 0.89 m/s, 254° | - | - |
| 1778032025 | 1.11° C | 71% | 1009.8 hPa | - | 0.89 m/s, 269° | - | - |
| 1778031460 | 1.11° C | 70% | 1009.7 hPa | - | 1.34 m/s, 268° | - | - |
| 1778030910 | 1.11° C | 70% | 1009.7 hPa | - | 1.34 m/s, 267° | - | - |
| 1778030380 | 1.11° C | 70% | 1009.7 hPa | - | 1.79 m/s, 264° | - | - |
| 1778029830 | 1.11° C | 70% | 1009.6 hPa | - | 1.79 m/s, 265° | - | - |
| 1778029290 | 1.67° C | 70% | 1009.5 hPa | - | 1.79 m/s, 264° | - | - |
| 1778028755 | 1.67° C | 70% | 1009.4 hPa | - | 1.79 m/s, 261° | - | - |
* Rain since midnight (hover to see other rain measurements)
** Current wind speed in m/s (hover to see current wind gust speed)